Flag for U.S.A. Weather past 2 weeks in Savannah, Georgia, U.S.A.

Now
80 °F

Passing clouds.


Feels Like: 86 °F
Forecast: 75 / 85 °F
Wind: 8 mph from Southeast

Location: Hunter U. S. Army Airfield

Current Time: Aug 1, 2015 at 10:45:37 PM

Latest Report: Aug 1, 2015 at 9:58 PM


Visibility: 10 mi

Pressure: 29.89 "Hg

Humidity: 92%

Dew point: 78 °F

Location of SavannahLocation

Historic Weather in Savannah — Graph

°F

Savannah temperature yesterday

Maximum temperature yesterday: 87 °F (at 1:58 PM)
Minimum temperature yesterday: 77 °F (at 11:58 PM)
Average temperature yesterday: 81 °F

Past Weeks' High & Low Weather Summary

 TemperatureHumidityPressure
High98 °F (Jul 22, 4:58 PM)100% (Jul 18, 12:58 AM)30.04 "Hg (Jul 18, 12:58 AM)
Low73 °F (Jul 20, 3:58 AM)52% (Jul 22, 4:58 PM)29.80 "Hg (Jul 21, 3:58 PM)
Average82 °F86%29.92 "Hg
* Reported Jul 17 9:58 PM — Aug 1 9:58 PM, Savannah, Weather by CustomWeather, © 2015

Note: Actual official high and low records may vary slightly from our data, if they occured in-between our weather recording intervals... More about our weather records

Advertising

Savannah weather history for previous 24 hours

 ConditionsComfort  
Time TempWeatherWind HumidityBarometerVisibility
9:58 PM
Sat, Aug 1
80 °FPassing clouds.8 mph92%29.89 "Hg10 mi
8:58 PM81 °FPassing clouds.6 mph89%29.88 "Hg10 mi
7:58 PM82 °FPassing clouds.6 mph89%29.87 "Hg10 mi
6:58 PM82 °FSunny.3 mph88%29.86 "Hg10 mi
5:58 PM83 °FScattered clouds.6 mph85%29.88 "Hg10 mi
4:58 PM86 °FThundershowers. Passing clouds.12 mph76%29.87 "Hg10 mi
3:58 PM86 °FSunny.13 mph81%29.88 "Hg10 mi
2:58 PM83 °FSunny.3 mph95%29.88 "Hg10 mi
2:03 PM79 °FHeavy rain. Fog.3 mph100%29.90 "Hg1 mi
12:58 PM88 °FScattered clouds.5 mph73%29.92 "Hg10 mi
11:58 AM88 °FPassing clouds.3 mph72%29.93 "Hg10 mi
10:58 AM84 °FPassing clouds.1 mph81%29.93 "Hg10 mi
9:58 AM82 °FSunny.5 mph86%29.92 "Hg10 mi
8:58 AM80 °FScattered clouds.5 mph90%29.93 "Hg10 mi
7:58 AM76 °FSunny.2 mph100%29.92 "Hg10 mi
6:58 AM74 °FOvercast.2 mph100%29.90 "Hg9 mi
5:58 AM74 °FPassing clouds.2 mph100%29.90 "Hg10 mi
4:58 AM74 °FPassing clouds.3 mph100%29.90 "Hg10 mi
3:58 AM75 °FClear.5 mph100%29.91 "Hg10 mi
2:58 AM76 °FClear.5 mph100%29.91 "Hg10 mi
1:58 AM76 °FPassing clouds.2 mph100%29.91 "Hg10 mi
12:58 AM77 °FClear.3 mph99%29.92 "Hg10 mi
11:58 PM
Fri, Jul 31
77 °FClear.3 mph99%29.93 "Hg10 mi
10:58 PM78 °FPassing clouds.3 mph96%29.92 "Hg10 mi
Weather by CustomWeather, © 2015

See weather overviewHow to use our weather pages